Location: Newark
(59.1754°N, 2.9845°W)
Time: 02:59:24
(UTC+00:00)

ISS - Visible Passes

Search period start: 17 July 2019 00:00
Search period end: 27 July 2019 00:00
Orbit: 409 x 418 km, 51.6° (Epoch: 17 July)

Date Brightness Start Highest point End Pass type
(mag) Time Alt. Az. Time Alt. Az. Time Alt. Az.
17 Jul -2.6 00:18:12 10° SW 00:20:51 22° S 00:23:30 10° ESE visible
17 Jul -2.3 01:54:25 10° WSW 01:56:51 19° SSW 01:59:15 10° SSE visible
17 Jul -2.5 23:29:11 10° SW 23:31:45 20° S 23:34:19 10° ESE visible
18 Jul -2.5 01:05:10 10° WSW 01:07:46 21° S 01:10:20 10° SE visible
18 Jul -2.3 22:40:17 10° SSW 22:42:40 18° SSE 22:45:02 10° ESE visible
19 Jul -2.6 00:15:59 10° WSW 00:18:39 22° S 00:21:18 10° SE visible
19 Jul -2.0 01:52:43 10° WSW 01:54:33 14° SSW 01:56:23 10° S visible
19 Jul -2.6 23:26:50 10° SW 23:29:31 22° S 23:32:12 10° SE visible
20 Jul -2.2 01:03:15 10° WSW 01:05:29 17° SSW 01:07:44 10° SSE visible
20 Jul -2.5 22:37:45 10° SW 22:40:23 22° S 22:43:02 10° ESE visible
21 Jul -2.4 00:13:54 10° WSW 00:16:23 19° SSW 00:18:02 14° SSE visible
21 Jul -2.5 23:24:38 10° WSW 23:27:16 21° S 23:29:25 12° SE visible
22 Jul -1.6 01:01:46 10° SW 01:02:12 11° SW 01:02:12 11° SW visible
22 Jul -2.5 22:35:25 10° SW 22:38:07 22° S 22:40:47 10° SE visible
23 Jul -2.0 00:12:02 10° WSW 00:13:59 15° SSW 00:13:59 15° SSW visible
23 Jul -2.1 23:22:34 10° WSW 23:24:54 18° SSW 23:25:55 16° S visible
24 Jul -2.3 22:33:13 10° WSW 22:35:45 20° SSW 22:37:57 12° SSE visible
25 Jul -1.7 23:20:52 10° SW 23:22:27 13° SSW 23:22:50 13° SSW visible
26 Jul -1.9 22:31:12 10° WSW 22:33:19 16° SSW 22:34:56 12° S visible
